EW5461 Weather Reports


time (UTC)temp
C
wind
direction
speed
KPH
gust
KPH
rain 1hr
cm
rain 24hr
cm
rain mn
cm
humidity
%
barometer
mb
20260506204543 16 339 3.2 9.7 0.00 0.10 0.10 71 1012.9
20260506203037 16 360 4.8 16.1 0.00 0.10 0.10 73 1012.8
20260506201536 16 5 8.0 16.1 0.00 0.10 0.10 73 1013.3
20260506200034 16 10 1.6 8.0 0.00 0.10 0.10 74 1013.4
20260506194536 16 347 4.8 14.5 0.00 0.10 0.10 73 1013.5
20260506193033 15 30 3.2 12.9 0.00 0.10 0.10 74 1013.8
20260506191530 14 360 6.4 14.5 0.00 0.10 0.10 75 1014.1
20260506190030 14 5 4.8 12.9 0.00 0.10 0.10 76 1014.1
20260506184529 14 5 6.4 16.1 0.00 0.10 0.10 76 1013.9
20260506183028 14 17 8.0 25.7 0.00 0.10 0.10 78 1013.1
20260506181527 13 5 11.3 22.5 0.00 0.10 0.10 78 1013.1
20260506180027 13 13 9.7 20.9 0.00 0.10 0.10 80 1013.2
20260506174526 12 21 12.9 22.5 0.00 0.10 0.10 80 1013.7
20260506173026 12 34 4.8 20.9 0.00 0.10 0.10 84 1013.5
20260506171527 11 28 9.7 22.5 0.00 0.10 0.10 83 1013.5
20260506170025 11 360 11.3 24.1 0.00 0.10 0.10 84 1013.2
20260506164525 11 44 4.8 12.9 0.00 0.10 0.10 86 1013.7
20260506163046 11 355 6.4 22.5 0.00 0.10 0.10 86 1013.9
20260506161524 11 9 6.4 19.3 0.00 0.10 0.10 87 1013.7
20260506160023 11 12 14.5 32.2 0.03 0.10 0.10 88 1012.7
20260506154520 11 5 16.1 30.6 0.10 0.10 0.10 90 1012.8
20260506153020 10 342 6.4 12.9 0.10 0.10 0.10 90 1014.0
20260506151519 10 339 8.0 19.3 0.10 0.10 0.10 90 1013.8
20260506150017 10 355 6.4 12.9 0.05 0.05 0.05 88 1014.7
20260506144514 10 317 8.0 12.9 0.00 0.00 0.00 87 1014.9
20260506143013 10 337 6.4 22.5 0.00 0.00 0.00 87 1014.3
20260506141513 10 5 6.4 19.3 0.00 0.00 0.00 86 1013.3
20260506140010 10 10 11.3 19.3 0.00 0.00 0.00 85 1014.0
20260506134509 10 338 12.9 20.9 0.00 0.00 0.00 85 1013.8
20260506133005 10 13 8.0 19.3 0.00 0.00 0.00 85 1013.0
20260506131504 10 32 9.7 20.9 0.00 0.00 0.00 85 1012.8
20260506130000 10 14 12.9 29.0 0.00 0.00 0.00 84 1012.5
20260506124559 10 350 12.9 24.1 0.00 0.00 0.00 84 1012.1
20260506123057 10 49 14.5 27.4 0.00 0.00 0.00 83 1012.2
20260506121553 11 344 12.9 32.2 0.00 0.00 0.00 82 1012.0
20260506120057 11 5 11.3 27.4 0.00 0.00 0.00 80 1011.8
20260506114556 11 14 8.0 22.5 0.00 0.00 0.00 79 1011.7
20260506113046 11 19 12.9 24.1 0.00 0.00 0.00 78 1011.3
20260506111543 12 316 14.5 24.1 0.00 0.00 0.00 77 1011.2
20260506110039 12 360 8.0 19.3 0.00 0.00 0.00 78 1010.7
20260506104538 12 347 12.9 24.1 0.00 0.00 0.00 77 1010.5
20260506103035 12 346 14.5 24.1 0.00 0.00 0.00 77 1010.4
20260506101533 12 350 11.3 19.3 0.00 0.00 0.00 79 1010.1
20260506100029 13 53 11.3 22.5 0.00 0.00 0.00 78 1009.8
20260506094528 13 18 11.3 19.3 0.00 0.00 0.00 78 1009.3
20260506093030 13 355 6.4 20.9 0.00 0.00 0.00 79 1009.4
20260506091524 13 355 6.4 14.5 0.00 0.00 0.00 79 1009.3
20260506090023 13 19 11.3 20.9 0.00 0.00 0.00 79 1009.2
20260506084519 13 350 11.3 17.7 0.00 0.00 0.00 79 1009.2
20260506083017 13 338 11.3 20.9 0.00 0.00 0.00 78 1008.9
20260506081513 13 350 12.9 24.1 0.00 0.00 0.00 79 1008.9
20260506073006 13 12 6.4 14.5 0.00 0.00 0.00 80 1008.7
20260506071505 13 9 4.8 9.7 0.00 0.00 0.00 81 1008.2
20260506061552 15 355 8.0 16.1 0.00 0.00 0.00 81 1008.4
20260506044544 16 350 9.7 19.3 0.00 0.00 0.00 79 1008.3
20260506043036 16 22 9.7 20.9 0.00 0.00 0.00 79 1008.2
20260506041533 16 44 8.0 25.7 0.00 0.00 0.00 79 1008.1
20260506040050 16 360 12.9 22.5 0.00 0.00 0.00 79 1008.2
20260506034527 17 360 14.5 22.5 0.00 0.00 0.00 78 1007.9
20260506033023 17 345 12.9 20.9 0.00 0.00 0.00 77 1007.5
20260506031536 18 345 8.0 17.7 0.00 0.00 0.00 77 1007.1
20260506030016 18 350 12.9 19.3 0.00 0.00 0.00 76 1006.7
20260506024519 18 355 11.3 20.9 0.00 0.00 0.00 75 1006.6
20260506023011 18 351 9.7 19.3 0.00 0.00 0.00 74 1006.3
20260506021509 19 15 9.7 19.3 0.00 0.00 0.00 74 1006.1
20260506020005 19 344 11.3 19.3 0.00 0.00 0.00 74 1005.8
20260506014501 20 12 9.7 19.3 0.00 0.00 0.00 74 1005.4
20260506013058 20 9 16.1 22.5 0.00 0.00 0.00 72 1005.0
20260506011558 20 16 9.7 20.9 0.00 0.00 0.00 72 1004.5
20260506010057 21 355 12.9 24.1 0.00 0.00 0.00 71 1004.3
20260506004551 21 355 12.9 19.3 0.00 0.00 0.00 71 1003.9
20260506003049 22 11 9.7 20.9 0.00 0.00 0.00 70 1003.9
20260506001547 22 5 17.7 25.7 0.00 0.00 0.00 68 1003.6
20260506000047 23 324 16.1 25.7 0.00 0.00 0.00 67 1003.4
20260505234555 23 350 14.5 24.1 0.00 0.00 0.00 66 1003.3
20260505233051 24 333 14.5 25.7 0.00 0.00 0.00 65 1003.2
20260505231551 25 360 12.9 25.7 0.00 0.00 0.00 64 1003.2
20260505230043 26 27 12.9 24.1 0.00 0.00 0.00 63 1002.8
20260505224543 26 297 12.9 22.5 0.00 0.00 0.00 63 1002.9
20260505223050 27 15 9.7 29.0 0.00 0.00 0.00 62 1002.4
20260505221540 28 320 11.3 20.9 0.00 0.00 0.00 61 1002.3
20260505220042 28 16 14.5 25.7 0.00 0.00 0.00 52 1002.2
20260505214547 28 360 14.5 20.9 0.00 0.00 0.00 52 1002.1
20260505213036 29 334 12.9 27.4 0.00 0.00 0.00 50 1002.3
20260505211534 30 360 14.5 29.0 0.00 0.00 0.00 49 1002.1
20260505210034 31 223 6.4 16.1 0.00 0.00 0.00 55 1002.3